Flag for Austria Weather past 2 weeks in Bruck an der Leitha, Lower Austria, Austria

Now
64 °F

Light rain. Overcast.


Feels Like: 64 °F
Forecast: 58 / 65 °F
Wind: N/A

Location: Wien / Schwechat-Flughafen

Current Time: Jul 29, 2015 at 5:28:36 AM

Latest Report: Jul 29, 2015 at 4:00 AM


Visibility: 12 mi

Pressure: 29.84 "Hg

Humidity: 91%

Dew point: 61 °F

Location of Bruck an der LeithaLocation

Historic Weather in Bruck an der Leitha — Graph

°F

Bruck an der Leitha temperature yesterday

Maximum temperature yesterday: 76 °F (at 2:00 PM)
Minimum temperature yesterday: 58 °F (at 6:00 AM)
Average temperature yesterday: 68 °F

Past Weeks' High & Low Weather Summary

 TemperatureHumidityPressure
High97 °F (Jul 19, 4:00 PM)91% (Jul 27, 2:00 AM)30.12 "Hg (Jul 27, 2:00 AM)
Low58 °F (Jul 28, 6:00 AM)19% (Jul 17, 5:00 PM)29.70 "Hg (Jul 25, 4:00 PM)
Average76 °F59%29.91 "Hg
* Reported Jul 14 4:00 AM — Jul 29 4:00 AM, Bruck an der Leitha, Weather by CustomWeather, © 2015

Note: Actual official high and low records may vary slightly from our data, if they occured in-between our weather recording intervals... More about our weather records

Advertising

Bruck an der Leitha weather history for previous 24 hours

 ConditionsComfort  
Time TempWeatherWind HumidityBarometerVisibility
4:00 AM
Wed, Jul 29
64 °FLight rain. Overcast.N/A91%29.84 "Hg12 mi
3:00 AM64 °FLight rain. Overcast.5 mph87%29.82 "Hg19 mi
2:00 AM66 °FOvercast.6 mph72%29.82 "Hg28 mi
1:00 AM66 °FOvercast.N/A69%29.82 "Hg28 mi
12:00 AM67 °FOvercast.N/A66%29.82 "Hg28 mi
10:00 PM
Tue, Jul 28
67 °FOvercast.3 mph65%29.80 "Hg31 mi
9:00 PM70 °FOvercast.5 mph55%29.79 "Hg28 mi
8:00 PM73 °FOvercast.6 mph51%29.78 "Hg31 mi
7:00 PM75 °FOvercast.8 mph45%29.77 "Hg25 mi
6:00 PM74 °FPartly sunny.6 mph49%29.78 "Hg28 mi
5:00 PM74 °FOvercast.9 mph45%29.79 "Hg25 mi
4:00 PM75 °FOvercast.8 mph49%29.80 "Hg25 mi
3:00 PM75 °FOvercast.7 mph50%29.80 "Hg25 mi
2:00 PM76 °FOvercast.7 mph48%29.81 "Hg22 mi
1:00 PM74 °FOvercast.6 mph58%29.83 "Hg25 mi
12:00 PM72 °FOvercast.6 mph59%29.83 "Hg25 mi
11:00 AM69 °FOvercast.5 mph70%29.84 "Hg25 mi
10:00 AM66 °FOvercast.N/A76%29.84 "Hg22 mi
9:00 AM64 °FOvercast.N/A79%29.84 "Hg22 mi
8:00 AM63 °FOvercast.N/A85%29.84 "Hg28 mi
7:00 AM59 °FPartly sunny.N/A91%29.84 "Hg22 mi
6:00 AM58 °FPartly sunny.N/A91%29.83 "Hg10 mi
Weather by CustomWeather, © 2015

See weather overviewHow to use our weather pages